[[{"header":{"parameterUnit":"m.s-1","parameterCategory":1,"la1":30.2991,"la2":30.254,"lo1":-89.0895,"lo2":-89.0444,"dy":0.0017,"dx":0.0017,"nx":28,"ny":28,"refTime":"2023-11-03T09:00:00:Z","depth":0,"parameterNumber":2,"parameterNumberName":"U-component_of_WINDS"},"data":[0,0,0,0,0,0,0,0,0,0,0,0,0,0,0,0,0,0,0,0,0,0,0,0,0,0,0,0,0,0,0,0,0,0,0,0,0,0,0,0,0,0,0,0,0,0,0,0,0,0,0,0,0,0,0,0,0,0,-3.4018,-3.4019,0,-3.417,-3.4171,-3.4173,-3.4049,-3.4044,-3.4038,-3.4033,-3.4194,-3.4203,-3.4212,0,0,0,0,0,0,0,0,0,0,0,0,0,-3.3624,-3.3632,-3.4017,-3.4019,-3.4021,-3.4169,-3.4171,-3.4174,-3.405,-3.4043,-3.4037,-3.4031,-3.4191,-3.4202,-3.4213,0,0,0,0,0,0,0,0,0,0,0,0,0,-3.3788,-3.3635,-3.4017,-3.3977,-3.3975,-3.4169,-3.4172,-3.4174,-3.4051,-3.4043,-3.4035,-3.4028,-3.4187,-3.4201,-3.4214,-3.4457,0,0,-3.4256,-3.4262,0,0,0,0,0,0,0,0,-3.3779,-3.3802,-3.3981,-3.398,-3.3978,-3.4082,-3.4092,-3.4269,-3.4053,-3.4023,-3.4033,-3.4024,-3.4164,-3.4179,-3.4225,-3.4465,-3.4471,-3.4258,-3.4266,-3.4272,-3.4276,0,0,0,0,0,0,0,-3.3768,-3.3795,-3.4078,-3.3984,-3.3982,-3.3953,-3.3968,-3.4125,-3.4136,-3.4024,-3.4016,-3.4035,-3.4161,-3.4212,-3.4228,-3.4474,-3.4257,-3.4269,-3.4278,-3.4283,-3.4922,-3.493,0,0,0,0,0,0,-3.376,-3.3787,-3.4073,-3.4082,-3.3857,-3.3967,-3.3983,-3.4057,-3.4133,-3.4137,-3.4042,-3.4029,-3.4192,-3.4212,-3.4233,-3.4523,-3.4272,-3.4285,-3.4293,-3.4913,-3.4924,-3.4933,0,0,0,0,0,0,-3.3752,-3.3786,-3.4067,-3.3932,-3.3966,-3.3982,-3.4066,-3.4064,-3.4114,-3.4146,-3.4148,-3.4091,-3.4187,-3.4213,-3.4402,-3.4527,-3.4291,-3.4303,-3.4903,-3.4917,-3.4929,-3.5105,0,0,0,0,0,0,-3.3741,-3.3784,-3.3875,-3.3935,-3.3973,-3.4233,-3.4073,-3.4073,-3.4138,-3.4122,-3.4193,-3.4197,-3.4183,-3.4382,-3.4416,-3.4541,-3.4314,-3.4892,-3.4909,-3.4924,-3.5088,-3.5122,-3.5152,0,0,0,0,0,-3.3727,-3.392,-3.3881,-3.3916,-3.4087,-3.424,-3.4262,-3.424,-3.4148,-3.4241,-3.4262,-3.4195,-3.4507,-3.4403,-3.4439,-3.4571,-3.4884,-3.4904,-3.4923,-3.5074,-3.5116,-3.5151,0,0,0,0,0,0,-3.3876,-3.3927,-3.3884,-3.4101,-3.4167,-3.4219,-3.4335,-3.4285,-3.4379,-3.4361,-3.433,-3.4347,-3.4546,-3.4577,-3.446,-3.4811,-3.4681,-3.4709,-3.4783,-3.4823,-3.4854,-3.4844,-3.4326,0,0,0,0,0,-3.3933,-3.4052,-3.409,-3.4279,-3.4314,-3.4319,-3.4385,-3.4362,-3.4429,-3.4457,-3.4491,-3.4561,-3.4675,-3.475,-3.4857,-3.5091,-3.5106,-3.52,-3.5232,-3.5258,-3.5283,-3.5411,-3.5454,-3.4998,-3.4997,-3.4997,0,0,-3.4055,-3.4097,-3.4174,-3.431,-3.4358,-3.4483,-3.4344,-3.4481,-3.4574,-3.4478,-3.4659,-3.4687,-3.4762,-3.4976,-3.5071,-3.5008,-3.5412,-3.5283,-3.5303,-3.5314,-3.5435,-3.5479,-3.5517,-3.5011,-3.5008,-3.5006,0,0,-3.4339,-3.4383,-3.4545,-3.4596,-3.467,-3.4673,-3.4712,-3.4772,-3.4786,-3.4966,-3.4897,-3.5008,-3.5204,-3.5261,-3.5316,-3.5623,-3.5566,-3.5659,-3.5826,-3.5951,-3.5987,-3.6018,-3.6129,-3.6169,-3.5683,-3.5684,-3.5684,0,-3.4481,-3.4665,-3.4635,-3.4778,-3.484,-3.4758,-3.4923,-3.4974,-3.5081,-3.5127,-3.5053,-3.5298,-3.5343,-3.5569,-3.5644,-3.5691,-3.5736,-3.5651,-3.5983,-3.6015,-3.6044,-3.615,-3.6191,-3.5694,-3.5693,-3.5692,-3.5691,0,-3.4836,-3.4965,-3.5087,-3.519,-3.5266,-3.542,-3.5415,-3.5495,-3.5466,-3.5477,-3.5662,-3.5713,-3.5829,-3.5881,-3.5854,-3.6104,-3.6062,-3.5987,-3.5857,-3.6099,-3.6198,-3.6238,-3.571,-3.5706,-3.5703,-3.57,0,0,-3.5219,-3.5304,-3.5349,-3.5396,-3.5472,-3.5572,-3.5722,-3.5834,-3.5905,-3.5981,-3.6107,-3.6275,-3.6206,-3.6269,-3.6247,-3.6357,-3.6599,-3.6268,-3.627,-3.6329,-3.6879,-3.6936,-3.6983,-3.6561,-3.6568,-3.6574,-3.6873,0,-3.5508,-3.5768,-3.5745,-3.5992,-3.6112,-3.6036,-3.6167,-3.6229,-3.6243,-3.6348,-3.6364,-3.6484,-3.6383,-3.642,-3.6525,-3.6547,-3.6709,-3.6525,-3.668,-3.6686,-3.6665,-3.7035,-3.7095,-3.7375,-3.6912,-3.6918,-3.6923,0,-3.5879,-3.5968,-3.6226,-3.6285,-3.6335,-3.6453,-3.6554,-3.6654,-3.6724,-3.6727,-3.6797,-3.6757,-3.691,-3.6776,-3.6987,-3.6863,-3.6925,-3.6946,-3.6956,-3.697,-3.682,-3.7061,-3.7463,-3.7506,-3.6983,-3.6978,-3.6974,0,-3.6134,-3.6318,-3.6496,-3.6538,-3.6612,-3.6697,-3.6731,-3.6793,-3.6862,-3.6951,-3.6996,-3.7102,-3.7161,-3.7245,-3.7236,-3.7138,-3.7452,-3.7316,-3.746,-3.7461,-3.753,-3.7526,-3.795,-3.7569,-3.7568,-3.7567,-3.7566,0,-3.646,-3.6622,-3.6612,-3.6722,-3.6902,-3.6875,-3.7054,-3.7079,-3.7135,-3.7249,-3.719,-3.73,-3.728,-3.739,-3.7384,-3.7561,-3.7588,-3.7596,-3.7593,-3.7602,-3.7601,-3.7643,-3.7624,-3.7578,-3.7576,-3.7574,-3.7572,0,-3.6775,-3.6775,-3.6965,-3.7019,-3.7036,-3.7166,-3.7212,-3.7318,-3.7326,-3.7473,-3.7506,-3.7521,-3.7647,-3.7646,-3.779,-3.7786,-3.8004,-3.7978,-3.798,-3.7975,-3.812,-3.8107,-3.8586,-3.8648,-3.8226,-3.823,-3.8233,0,-3.6984,-3.7106,-3.7173,-3.7244,-3.7284,-3.7401,-3.7471,-3.745,-3.7526,-3.7615,-3.771,-3.783,-3.7925,-3.8131,-3.8156,-3.8267,-3.8244,-3.8404,-3.826,-3.8266,-3.8247,-3.8241,-3.8253,-3.8433,-3.8437,-3.8441,-3.8444,0,-3.7354,-3.7348,-3.745,-3.7553,-3.7638,-3.7718,-3.7792,-3.7855,-3.7843,-3.7931,-3.8059,-3.8133,-3.828,-3.8401,-3.8508,-3.8544,-3.8494,-3.8489,-3.8529,-3.854,-3.8537,-3.8541,-3.8058,-3.8479,-3.8475,-3.8473,-3.8471,-3.8469,-3.7622,-3.7728,-3.7791,-3.7908,-3.7961,-3.8032,-3.8133,-3.8155,-3.8261,-3.8378,-3.8359,-3.8503,-3.857,-3.8708,-3.8755,-3.8867,-3.8811,-3.8868,-3.8883,-3.8897,-3.8914,-3.8518,-3.8887,-3.8886,-3.8885,-3.8884,-3.8883,0,-3.799,-3.8027,-3.8134,-3.8239,-3.8332,-3.8274,-3.8353,-3.8434,-3.8561,-3.8627,-3.8722,-3.887,-3.8987,-3.9021,-3.9135,-3.9219,-3.9199,-3.925,-3.9244,-3.9253,-3.8957,-3.8912,-3.9264,-3.9264,-3.9264,-3.9264,-3.9264,-3.9264,-3.8192,-3.8368,-3.837,-3.8573,-3.8608,-3.8747,-3.8798,-3.8864,-3.8916,-3.9084,-3.918,-3.9201,-3.9256,-3.9373,-3.9478,-3.9485,-3.9531,-3.9592,-3.959,-3.9312,-3.9274,-3.9238,-3.9195,-3.9602,-3.9602,-3.9877,-3.9879,-3.9881]},{"header":{"parameterUnit":"m.s-1","parameterCategory":1,"la1":30.2991,"la2":30.254,"lo1":-89.0895,"lo2":-89.0444,"dy":0.0017,"dx":0.0017,"nx":28,"ny":28,"refTime":"2023-11-03T09:00:00:Z","depth":0,"parameterNumber":3,"parameterNumberName":"V-component_of_WINDS"},"data":[0,0,0,0,0,0,0,0,0,0,0,0,0,0,0,0,0,0,0,0,0,0,0,0,0,0,0,0,0,0,0,0,0,0,0,0,0,0,0,0,0,0,0,0,0,0,0,0,0,0,0,0,0,0,0,0,0,0,-1.7512,-1.7512,0,-1.747,-1.7469,-1.7469,-1.7443,-1.7443,-1.7443,-1.7443,-1.7398,-1.7397,-1.7396,0,0,0,0,0,0,0,0,0,0,0,0,0,-1.7567,-1.7567,-1.7512,-1.7511,-1.7511,-1.747,-1.7469,-1.7469,-1.7443,-1.7443,-1.7443,-1.7443,-1.7399,-1.7397,-1.7396,0,0,0,0,0,0,0,0,0,0,0,0,0,-1.7536,-1.7566,-1.7512,-1.7493,-1.7491,-1.747,-1.7469,-1.7469,-1.7443,-1.7443,-1.7443,-1.7443,-1.7399,-1.7398,-1.7396,-1.739,0,0,-1.7391,-1.739,0,0,0,0,0,0,0,0,-1.7538,-1.7534,-1.7497,-1.7495,-1.7492,-1.7462,-1.7473,-1.7442,-1.7444,-1.7462,-1.7443,-1.7443,-1.7419,-1.7416,-1.7409,-1.7388,-1.7386,-1.7391,-1.739,-1.7389,-1.7389,0,0,0,0,0,0,0,-1.754,-1.7536,-1.7495,-1.7496,-1.7493,-1.7486,-1.7482,-1.7467,-1.7442,-1.746,-1.7458,-1.7454,-1.7418,-1.741,-1.7407,-1.7385,-1.7391,-1.7389,-1.7388,-1.7388,-1.7354,-1.7354,0,0,0,0,0,0,-1.7546,-1.7538,-1.7497,-1.7494,-1.7515,-1.7485,-1.748,-1.7472,-1.7442,-1.7437,-1.7454,-1.7452,-1.7413,-1.7409,-1.7406,-1.7395,-1.7389,-1.7388,-1.7387,-1.7354,-1.7354,-1.7354,0,0,0,0,0,0,-1.7547,-1.7542,-1.7498,-1.7515,-1.7509,-1.7485,-1.7475,-1.7471,-1.7463,-1.7437,-1.7433,-1.745,-1.7413,-1.7408,-1.7393,-1.7393,-1.7387,-1.7385,-1.7354,-1.7354,-1.7354,-1.7375,0,0,0,0,0,0,-1.7549,-1.7543,-1.7541,-1.7516,-1.7508,-1.7488,-1.7475,-1.747,-1.7461,-1.7458,-1.7433,-1.7428,-1.7412,-1.7396,-1.7392,-1.7391,-1.7384,-1.7354,-1.7354,-1.7354,-1.7374,-1.7376,-1.7377,0,0,0,0,0,-1.7551,-1.7549,-1.7541,-1.7536,-1.7506,-1.7488,-1.7484,-1.7466,-1.7461,-1.7458,-1.7441,-1.7429,-1.7394,-1.7395,-1.739,-1.7389,-1.7354,-1.7354,-1.7354,-1.7373,-1.7375,-1.7377,0,0,0,0,0,0,-1.7574,-1.7545,-1.7536,-1.7526,-1.751,-1.7484,-1.748,-1.7469,-1.7453,-1.7452,-1.7429,-1.7424,-1.7411,-1.7398,-1.74,-1.738,-1.7372,-1.7372,-1.7389,-1.739,-1.7392,-1.7395,-1.7383,0,0,0,0,0,-1.7579,-1.7567,-1.7542,-1.7535,-1.7527,-1.7505,-1.7497,-1.7484,-1.7466,-1.7459,-1.7441,-1.7423,-1.7408,-1.7398,-1.7383,-1.7372,-1.7365,-1.7368,-1.737,-1.7371,-1.7371,-1.7362,-1.7363,-1.7355,-1.7355,-1.7355,0,0,-1.7587,-1.7569,-1.7563,-1.7539,-1.7525,-1.7513,-1.7499,-1.7487,-1.7478,-1.7457,-1.7442,-1.7428,-1.7407,-1.7393,-1.7387,-1.7382,-1.7371,-1.7371,-1.7373,-1.7371,-1.7363,-1.7363,-1.7364,-1.7355,-1.7355,-1.7355,0,0,-1.7595,-1.7582,-1.7574,-1.756,-1.7538,-1.7523,-1.7521,-1.7497,-1.7487,-1.7472,-1.7455,-1.7443,-1.7417,-1.7402,-1.7391,-1.7392,-1.738,-1.7388,-1.7396,-1.7388,-1.7388,-1.7389,-1.7388,-1.7388,-1.7387,-1.7388,-1.7388,0,-1.7608,-1.759,-1.7571,-1.756,-1.7549,-1.7529,-1.752,-1.7507,-1.7482,-1.7474,-1.747,-1.7437,-1.7421,-1.7403,-1.7403,-1.7395,-1.7391,-1.7391,-1.739,-1.739,-1.739,-1.7389,-1.7389,-1.7389,-1.7388,-1.7388,-1.7388,0,-1.7606,-1.7594,-1.759,-1.7566,-1.7554,-1.7544,-1.7523,-1.7513,-1.7501,-1.7486,-1.747,-1.745,-1.743,-1.7425,-1.7413,-1.7405,-1.7402,-1.7394,-1.7386,-1.7392,-1.7391,-1.7391,-1.739,-1.739,-1.7389,-1.7389,0,0,-1.7629,-1.7594,-1.7593,-1.7581,-1.7556,-1.7545,-1.7533,-1.7514,-1.7506,-1.7488,-1.7477,-1.7455,-1.7447,-1.7434,-1.742,-1.7414,-1.7414,-1.7406,-1.7405,-1.7407,-1.7402,-1.7408,-1.7409,-1.7406,-1.7406,-1.7406,-1.7404,0,-1.7634,-1.7613,-1.7594,-1.758,-1.7567,-1.7547,-1.7537,-1.7519,-1.7505,-1.7491,-1.7474,-1.7459,-1.7449,-1.7442,-1.7434,-1.7416,-1.7413,-1.7416,-1.7394,-1.7394,-1.74,-1.7408,-1.7415,-1.7414,-1.7403,-1.7403,-1.7403,0,-1.7636,-1.762,-1.7604,-1.7578,-1.7572,-1.7563,-1.7543,-1.753,-1.7509,-1.7499,-1.7484,-1.747,-1.7455,-1.7448,-1.7427,-1.7429,-1.7419,-1.7409,-1.7408,-1.7405,-1.7399,-1.7405,-1.7414,-1.7414,-1.7402,-1.7402,-1.7402,0,-1.7654,-1.7627,-1.7614,-1.7605,-1.7575,-1.7569,-1.7556,-1.7535,-1.7524,-1.7505,-1.7498,-1.7478,-1.7467,-1.7451,-1.7431,-1.7428,-1.7411,-1.7403,-1.7401,-1.7401,-1.7398,-1.7399,-1.7405,-1.7392,-1.7392,-1.7392,-1.7392,0,-1.766,-1.7651,-1.7621,-1.7613,-1.7602,-1.758,-1.7569,-1.7554,-1.7535,-1.7523,-1.7504,-1.7493,-1.7467,-1.7452,-1.7436,-1.7419,-1.7415,-1.7405,-1.7401,-1.7407,-1.7408,-1.74,-1.7399,-1.7392,-1.7392,-1.7392,-1.7392,0,-1.7678,-1.7658,-1.7642,-1.7615,-1.7607,-1.76,-1.7576,-1.7567,-1.755,-1.7535,-1.753,-1.7504,-1.7485,-1.7463,-1.7437,-1.7426,-1.7411,-1.7405,-1.7418,-1.7416,-1.7415,-1.7415,-1.7416,-1.7415,-1.7403,-1.7404,-1.7404,0,-1.7683,-1.7676,-1.7647,-1.7638,-1.7626,-1.7611,-1.7599,-1.7577,-1.7566,-1.754,-1.7533,-1.7513,-1.7496,-1.7466,-1.7445,-1.7424,-1.7417,-1.7419,-1.7414,-1.742,-1.7416,-1.7417,-1.7415,-1.742,-1.7421,-1.7421,-1.7421,0,-1.7695,-1.7685,-1.7669,-1.765,-1.7637,-1.762,-1.7603,-1.7596,-1.757,-1.7557,-1.7538,-1.7525,-1.7498,-1.7477,-1.7454,-1.7439,-1.7425,-1.7423,-1.7421,-1.7427,-1.7434,-1.7429,-1.7422,-1.7423,-1.7423,-1.7422,-1.7422,-1.7422,-1.7706,-1.7698,-1.7676,-1.7659,-1.7644,-1.7627,-1.7617,-1.7599,-1.7583,-1.756,-1.7547,-1.7528,-1.7505,-1.7472,-1.7458,-1.7441,-1.7437,-1.7435,-1.7434,-1.7433,-1.7435,-1.7437,-1.7437,-1.7437,-1.7437,-1.7437,-1.7437,0,-1.7715,-1.7701,-1.7685,-1.7661,-1.7647,-1.7636,-1.7616,-1.7604,-1.7588,-1.7568,-1.7551,-1.7528,-1.7508,-1.7484,-1.7462,-1.7454,-1.7447,-1.7449,-1.7449,-1.7445,-1.7441,-1.7444,-1.7455,-1.7455,-1.7455,-1.7455,-1.7455,-1.7455,-1.7719,-1.7704,-1.7692,-1.7668,-1.7653,-1.7635,-1.7624,-1.7608,-1.7592,-1.7568,-1.7551,-1.7536,-1.7514,-1.749,-1.747,-1.7464,-1.7456,-1.746,-1.7451,-1.7447,-1.7446,-1.7444,-1.7447,-1.7459,-1.7459,-1.7457,-1.7457,-1.7457]}]]